Change the Weather History Date:

Wednesday, March 27, 2013

  Actual Average Record
Temperature  
Mean Temperature 52 °F -  
Max Temperature 57 °F - - ()
Min Temperature 46 °F - - ()
Degree Days  
Heating Degree Days 14    
Growing Degree Days 2 (Base 50)    
Moisture  
Dew Point 48 °F    
Average Humidity 92    
Maximum Humidity 100    
Minimum Humidity 72    
Precipitation  
Precipitation 0.00 in - - ()
Sea Level Pressure  
Sea Level Pressure 29.58 in    
Wind  
Wind Speed 10 mph ()    
Max Wind Speed 18 mph    
Max Gust Speed -    
Visibility 6.1 miles    
Events Rain    
T = Trace of Precipitation, MM = Missing Value Source: Averaged Metar Reports

Daily Weather History Graph

Daily Weather History Graph

Search for Another Location

Airport or City:

Trip Planner

Search our weather history database for the weather conditions in past years. The results will help you decide how hot, cold, wet, or windy it might be!

Date:

Astronomy

Mar. 27, 2013 Rise Set
Actual Time 7:10 AM CET 7:39 PM CET
Civil Twilight 6:42 AM CET 8:07 PM CET
Nautical Twilight 6:10 AM CET 8:40 PM CET
Astronomical Twilight 5:36 AM CET 9:14 PM CET
Moon 8:08 PM CET (3/27) 6:53 AM CET (3/27)
Length of Visible Light 13h 24m
Length of Day
12h 28m
Full, 100% of the Moon is Illuminated
Mar 27
Full
Apr 3
Last Quarter
Apr 10
New
Apr 18
First Quarter
Apr 25
Full

Hourly Weather History & Observations

Time (CET) Temp. Windchill Dew Point Humidity Pressure Visibility Wind Dir Wind Speed Gust Speed Precip Events Conditions
7:00 AM 46.4 °F 41.5 °F 46.4 °F 100% 29.56 in 6.2 mi SW 10.4 mph - N/A   Light Drizzle
7:30 AM 46.4 °F 41.9 °F 46.4 °F 100% 29.56 in 6.2 mi SW 9.2 mph - N/A   Mostly Cloudy
8:00 AM 46.4 °F 42.4 °F 46.4 °F 100% 29.56 in 6.2 mi SW 8.1 mph - N/A   Overcast
8:30 AM 46.4 °F 42.4 °F 46.4 °F 100% 29.56 in 6.2 mi SW 8.1 mph - N/A   Overcast
9:00 AM 46.4 °F 41.5 °F 46.4 °F 100% 29.56 in 6.2 mi SW 10.4 mph - N/A   Overcast
9:30 AM 46.4 °F 41.5 °F 46.4 °F 100% 29.56 in 5.0 mi SW 10.4 mph - N/A   Light Drizzle
10:00 AM 48.2 °F - 48.2 °F 100% 29.59 in 6.2 mi WSW 12.7 mph - N/A   Overcast
10:30 AM 48.2 °F - 48.2 °F 100% 29.59 in 6.2 mi WSW 13.8 mph - N/A   Mostly Cloudy
11:00 AM 48.2 °F - 48.2 °F 100% 29.59 in 6.2 mi WSW 12.7 mph - N/A   Mostly Cloudy
11:30 AM 50.0 °F - 48.2 °F 94% 29.59 in 6.2 mi WSW 13.8 mph - N/A   Mostly Cloudy
12:00 PM 51.8 °F - 50.0 °F 94% 29.59 in 6.2 mi WSW 13.8 mph - N/A   Mostly Cloudy
12:30 PM 53.6 °F - 50.0 °F 88% 29.59 in 6.2 mi WSW 12.7 mph - N/A   Mostly Cloudy
1:00 PM 53.6 °F - 48.2 °F 82% 29.59 in 6.2 mi WSW 13.8 mph - N/A   Mostly Cloudy
1:30 PM 53.6 °F - 48.2 °F 82% 29.59 in 6.2 mi WSW 12.7 mph - N/A   Mostly Cloudy
2:00 PM 55.4 °F - 48.2 °F 77% 29.56 in 6.2 mi West 11.5 mph - N/A   Mostly Cloudy
2:30 PM 57.2 °F - 48.2 °F 72% 29.56 in 6.2 mi West 12.7 mph - N/A   Mostly Cloudy
3:00 PM 53.6 °F - 50.0 °F 88% 29.56 in 6.2 mi WSW 18.4 mph - N/A   Mostly Cloudy
3:30 PM 55.4 °F - 48.2 °F 77% 29.56 in 6.2 mi SW 11.5 mph - N/A   Mostly Cloudy
4:00 PM 55.4 °F - 51.8 °F 88% 29.56 in 6.2 mi SW 15.0 mph - N/A   Scattered Clouds
4:30 PM 53.6 °F - 50.0 °F 88% 29.56 in 6.2 mi SW 15.0 mph - N/A   Mostly Cloudy
5:00 PM 53.6 °F - 50.0 °F 88% 29.56 in 6.2 mi WSW 16.1 mph - N/A   Mostly Cloudy
5:07 PM 51.8 °F - 50.0 °F 94% 29.56 in 5.0 mi WSW 12.7 mph - N/A Rain Rain Showers
5:30 PM 51.8 °F - 50.0 °F 94% 29.56 in 6.2 mi West 12.7 mph - N/A   Mostly Cloudy
6:00 PM 50.0 °F - 48.2 °F 94% 29.59 in 6.2 mi WSW 10.4 mph - N/A   Mostly Cloudy
6:30 PM 51.8 °F - 50.0 °F 94% 29.59 in 6.2 mi WSW 8.1 mph - N/A   Mostly Cloudy
7:00 PM 51.8 °F - 50.0 °F 94% 29.59 in 6.2 mi WSW 11.5 mph - N/A   Mostly Cloudy
7:30 PM 51.8 °F - 48.2 °F 88% 29.59 in 6.2 mi West 12.7 mph - N/A   Mostly Cloudy
8:00 PM 50.0 °F - 48.2 °F 94% 29.62 in 6.2 mi West 11.5 mph - N/A   Scattered Clouds
8:30 PM 50.0 °F - 48.2 °F 94% 29.62 in 6.2 mi West 10.4 mph - N/A   Scattered Clouds
9:00 PM 50.0 °F - 48.2 °F 94% 29.62 in 6.2 mi West 11.5 mph - N/A   Scattered Clouds
9:30 PM 48.2 °F - 48.2 °F 100% 29.62 in 6.2 mi West 10.4 mph - N/A   Scattered Clouds